Riverside March, CA

7:18 PM PDT on May 27, 2017 (GMT -0700)
March Air Reserve Base

Weather History for KRIV - October, 2012

Change the Weather History Date:

Saturday, October 27, 2012

  Actual Average Record
Temperature  
Mean Temperature 67 °F -  
Max Temperature 88 °F 72 °F 94 °F (2008)
Min Temperature 46 °F 47 °F 37 °F (2011)
Cooling Degree Days 2    
Growing Degree Days 17 (Base 50)    
Moisture  
Dew Point 19 °F    
Average Humidity 19    
Maximum Humidity 37    
Minimum Humidity 7    
Precipitation  
Precipitation 0.00 in - - ()
Sea Level Pressure  
Sea Level Pressure 29.93 in    
Wind  
Wind Speed 4 mph (NNW)    
Max Wind Speed 12 mph    
Max Gust Speed -    
Visibility 10 miles    
Events      
Averages and records for this station are not official NWS values.
T = Trace of Precipitation, MM = Missing Value Source: NWS Daily Summary

Daily Weather History Graph

Daily Weather History Graph

Search for Another Location

Airport or City:

Trip Planner

Search our weather history database for the weather conditions in past years. The results will help you decide how hot, cold, wet, or windy it might be!

Date:

Astronomy

Oct. 27, 2012 Rise Set
Actual Time 7:04 AM PDT 6:00 PM PDT
Civil Twilight 6:38 AM PDT 6:26 PM PDT
Nautical Twilight 6:09 AM PDT 6:55 PM PDT
Astronomical Twilight 5:40 AM PDT 7:24 PM PDT
Moon 4:46 PM PDT (10/27) 5:07 AM PDT (10/27)
Length of Visible Light 11h 47m
Length of Day
10h 56m
Waxing Gibbous, 96% of the Moon is Illuminated
Oct 27
Waxing Gibbous
Oct 29
Full
Nov 6
Last Quarter
Nov 13
New
Nov 20
First Quarter

Hourly Weather History & Observations

Time (PDT) Temp. Dew Point Humidity Pressure Visibility Wind Dir Wind Speed Gust Speed Precip Events Conditions
12:55 AM 52.0 °F 19.4 °F 28% 29.97 in 10.0 mi North 3.5 mph - N/A   Clear
1:55 AM 48.4 °F 18.1 °F 30% 29.96 in 10.0 mi NNW 5.8 mph - N/A   Clear
2:55 AM 48.2 °F 21.4 °F 35% 29.96 in 10.0 mi Calm Calm - N/A   Clear
3:55 AM 51.3 °F 18.9 °F 28% 29.95 in 10.0 mi Calm Calm - N/A   Clear
4:55 AM 51.1 °F 18.3 °F 27% 29.94 in 10.0 mi Calm Calm - N/A   Clear
5:55 AM 46.6 °F 21.7 °F 37% 29.95 in 10.0 mi NW 5.8 mph - N/A   Clear
6:55 AM 47.5 °F 20.5 °F 34% 29.96 in 10.0 mi North 3.5 mph - N/A   Clear
7:55 AM 53.2 °F 23.5 °F 32% 29.97 in 10.0 mi North 3.5 mph - N/A   Clear
8:03 AM 55.4 °F 23.0 °F 29% 29.97 in 10.0 mi NW 2.3 mph - N/A   Clear
8:55 AM 68.9 °F 17.8 °F 14% 29.97 in 10.0 mi NNW 5.8 mph - N/A   Clear
9:55 AM 77.2 °F 14.5 °F 9% 29.96 in 10.0 mi Variable 4.6 mph - N/A   Clear
10:55 AM 80.6 °F 14.5 °F 8% 29.95 in 10.0 mi NNW 4.6 mph - N/A   Clear
11:55 AM 83.1 °F 14.9 °F 8% 29.94 in 10.0 mi Calm Calm - 0.00 in   Light Drizzle
12:55 PM 85.8 °F 17.1 °F 8% 29.91 in 10.0 mi NNW 9.2 mph - N/A   Clear
1:03 PM 86.0 °F 15.8 °F 7% 29.91 in 10.0 mi NNW 4.6 mph - N/A   Clear
1:55 PM 87.6 °F 16.7 °F 7% 29.88 in 10.0 mi NNW 8.1 mph - N/A   Clear
2:55 PM 88.2 °F 18.0 °F 8% 29.87 in 10.0 mi West 4.6 mph - N/A   Clear
3:55 PM 87.6 °F 16.9 °F 7% 29.86 in 10.0 mi Calm Calm - N/A   Clear
4:55 PM 86.5 °F 14.5 °F 7% 29.86 in 10.0 mi North 11.5 mph - N/A   Clear
5:55 PM 81.9 °F 15.4 °F 8% 29.88 in 10.0 mi NNE 8.1 mph - N/A   Clear
6:55 PM 69.6 °F 20.5 °F 16% 29.91 in 10.0 mi NNW 3.5 mph - N/A   Clear
7:55 PM 65.5 °F 22.5 °F 19% 29.93 in 10.0 mi Variable 3.5 mph - N/A   Clear
8:55 PM 65.7 °F 22.3 °F 19% 29.93 in 10.0 mi Calm Calm - N/A   Clear
9:55 PM 71.1 °F 18.1 °F 13% 29.94 in 10.0 mi Calm Calm - N/A   Clear
10:55 PM 60.1 °F 23.5 °F 25% 29.96 in 10.0 mi West 3.5 mph - N/A   Clear
11:55 PM 55.4 °F 23.2 °F 29% 29.95 in 10.0 mi Calm Calm - N/A   Clear